Oxford, AL

1:00 AM CDT on August 26, 2016 (GMT -0500)
Anniston Metro

Weather History for KANB - April, 2013

Change the Weather History Date:

Wednesday, April 24, 2013

  Actual Average Record
Temperature  
Mean Temperature 61 °F 64 °F  
Max Temperature 70 °F 76 °F 90 °F (1960)
Min Temperature 51 °F 52 °F 34 °F (1986)
Degree Days  
Heating Degree Days 4    
Month to date heating degree days 126  
Since 1 July heating degree days 2631  
Growing Degree Days 12 (Base 50)    
Moisture  
Dew Point 57 °F    
Average Humidity 78    
Maximum Humidity 89    
Minimum Humidity 66    
Precipitation  
Precipitation 0.10 in 0.14 in 1.49 in (2003)
Month to date precipitation 5.51 3.30  
Year to date precipitation 23.46 17.86  
Sea Level Pressure  
Sea Level Pressure 30.11 in    
Wind  
Wind Speed 5 mph (WSW)    
Max Wind Speed 18 mph    
Max Gust Speed 25 mph    
Visibility 9 miles    
Events Rain    
T = Trace of Precipitation, MM = Missing Value Source: NWS Daily Summary

Daily Weather History Graph

Daily Weather History Graph

Search for Another Location

Airport or City:

Trip Planner

Search our weather history database for the weather conditions in past years. The results will help you decide how hot, cold, wet, or windy it might be!

Date:

Astronomy

Apr. 24, 2013 Rise Set
Actual Time 6:02 AM CDT 7:21 PM CDT
Civil Twilight 5:36 AM CDT 7:47 PM CDT
Nautical Twilight 5:04 AM CDT 8:18 PM CDT
Astronomical Twilight 4:32 AM CDT 8:51 PM CDT
Moon 6:25 PM CDT (4/24) 5:02 AM CDT (4/24)
Length of Visible Light 14h 11m
Length of Day
13h 19m
Waxing Gibbous, 98% of the Moon is Illuminated
Apr 24
Waxing Gibbous
Apr 25
Full
May 2
Last Quarter
May 9
New
May 17
First Quarter

Hourly Weather History & Observations

Time (CDT) Temp. Dew Point Humidity Pressure Visibility Wind Dir Wind Speed Gust Speed Precip Events Conditions
12:53 AM 57.0 °F 53.1 °F 87% 30.09 in 8.0 mi Calm Calm - N/A   Clear
1:53 AM 55.9 °F 52.0 °F 87% 30.07 in 10.0 mi Calm Calm - N/A   Clear
2:53 AM 57.0 °F 53.1 °F 87% 30.06 in 10.0 mi Calm Calm - N/A   Overcast
3:53 AM 57.9 °F 53.1 °F 84% 30.07 in 10.0 mi Calm Calm - N/A   Mostly Cloudy
5:53 AM 55.0 °F 52.0 °F 89% 30.08 in 10.0 mi Calm Calm - N/A   Mostly Cloudy
6:53 AM 57.0 °F 53.1 °F 87% 30.06 in 10.0 mi NE 4.6 mph - N/A   Clear
7:53 AM 64.9 °F 55.9 °F 73% 30.06 in 10.0 mi Calm Calm - N/A   Clear
8:53 AM 69.1 °F 57.9 °F 68% 30.09 in 10.0 mi SW 12.7 mph 17.3 mph N/A   Partly Cloudy
9:24 AM 69.8 °F 57.2 °F 64% 30.09 in 10.0 mi SSW 13.8 mph 20.7 mph N/A   Mostly Cloudy
9:53 AM 69.1 °F 57.0 °F 65% 30.08 in 10.0 mi South 10.4 mph 19.6 mph N/A   Scattered Clouds
10:53 AM 70.0 °F 57.0 °F 63% 30.10 in 10.0 mi SW 10.4 mph - N/A   Clear
11:53 AM 70.0 °F 59.0 °F 68% 30.12 in 10.0 mi WSW 11.5 mph - N/A   Overcast
12:46 PM 68.0 °F 59.0 °F 73% 30.12 in 10.0 mi WSW 8.1 mph - N/A   Overcast
12:53 PM 68.0 °F 59.0 °F 73% 30.12 in 10.0 mi WSW 8.1 mph - N/A   Overcast
1:53 PM 66.9 °F 59.0 °F 76% 30.10 in 10.0 mi WSW 6.9 mph - 0.00 in   Overcast
2:19 PM 66.2 °F 60.8 °F 83% 30.11 in 8.0 mi WSW 5.8 mph - 0.00 in Rain Light Rain
2:53 PM 66.0 °F 61.0 °F 84% 30.10 in 9.0 mi SW 3.5 mph - 0.00 in Rain Light Rain
3:22 PM 66.2 °F 60.8 °F 83% 30.09 in 9.0 mi SSW 5.8 mph - 0.00 in Rain Light Rain
3:53 PM 68.0 °F 61.0 °F 78% 30.08 in 10.0 mi SSW 8.1 mph - 0.00 in   Overcast
4:53 PM 70.0 °F 61.0 °F 73% 30.07 in 10.0 mi SW 6.9 mph - 0.00 in   Overcast
5:29 PM 69.8 °F 60.8 °F 73% 30.08 in 10.0 mi SW 10.4 mph 16.1 mph N/A   Overcast
5:41 PM 69.8 °F 60.8 °F 73% 30.08 in 10.0 mi SW 10.4 mph - N/A   Overcast
5:53 PM 69.1 °F 60.1 °F 73% 30.08 in 10.0 mi WSW 5.8 mph - 0.00 in Rain Light Rain
6:01 PM 66.2 °F 62.6 °F 88% 30.09 in 2.5 mi West 12.7 mph 17.3 mph 0.04 in Rain Rain
6:10 PM 64.4 °F 62.6 °F 94% 30.09 in 1.5 mi West 9.2 mph - 0.09 in Rain Rain
6:16 PM 64.4 °F 62.6 °F 94% 30.10 in 2.5 mi NNW 10.4 mph 16.1 mph 0.09 in Rain Light Rain
6:24 PM 60.8 °F 57.2 °F 88% 30.11 in 6.0 mi NW 8.1 mph 18.4 mph 0.10 in Rain Light Rain
6:36 PM 59.0 °F 57.2 °F 94% 30.12 in 10.0 mi NNW 8.1 mph - 0.10 in   Overcast
6:53 PM 57.9 °F 55.9 °F 93% 30.13 in 10.0 mi Calm Calm - 0.10 in   Overcast
7:19 PM 57.2 °F 53.6 °F 88% 30.14 in 10.0 mi Calm Calm - N/A   Overcast
7:41 PM 57.2 °F 53.6 °F 88% 30.15 in 10.0 mi NNE 4.6 mph - N/A   Overcast
7:53 PM 55.9 °F 52.0 °F 87% 30.15 in 10.0 mi North 5.8 mph - N/A   Overcast
8:53 PM 55.0 °F 50.0 °F 83% 30.18 in 9.0 mi Calm Calm - 0.00 in Rain Light Rain
9:53 PM 53.1 °F 50.0 °F 89% 30.20 in 10.0 mi NNW 4.6 mph - 0.00 in Rain Light Rain
10:53 PM 53.1 °F 48.9 °F 86% 30.20 in 10.0 mi North 8.1 mph - 0.00 in   Overcast
11:53 PM 52.0 °F 48.0 °F 86% 30.21 in 10.0 mi NNE 9.2 mph - N/A   Overcast